ProjectID,Date,Electric Generation,Electric Utility Import,Facility Electric Load
,YYYY-MM-DD,kW,kW,kW
158,2013-12-11,13.273333333333333,,13.273333333333333
158,2013-12-12,28.24,,28.24
158,2013-12-13,19.606666666666666,,19.606666666666666
158,2013-12-14,0.17,,0.17
158,2013-12-15,0.03666666666666667,,0.03666666666666667
158,2013-12-16,0.04,,0.04
158,2013-12-17,0.04,,0.04
158,2013-12-18,0.04666666666666667,,0.04666666666666667
158,2013-12-19,0.049999999999999996,,0.049999999999999996
158,2013-12-20,0.06666666666666667,,0.06666666666666667
158,2013-12-21,10.623333333333333,,10.623333333333333
158,2013-12-22,4.1499999999999995,,4.1499999999999995
158,2013-12-23,1.5599999999999998,,1.5599999999999998
158,2013-12-24,22.216708333333333,,22.216708333333333
158,2013-12-25,3.5999166666666667,,3.5999166666666667
158,2013-12-26,1.8134166666666667,,1.8134166666666667
158,2013-12-27,10.459958333333333,,10.459958333333333
158,2013-12-28,23.0,,23.0
158,2013-12-29,2.4066666666666667,,2.4066666666666667
158,2013-12-30,16.633375,,16.633375
158,2013-12-31,17.369958333333333,,17.369958333333333
158,2014-01-01,0.0,,0.0
158,2014-01-02,0.20995833333333333,,0.20995833333333333
158,2014-01-03,0.07666666666666667,,0.07666666666666667
158,2014-01-04,0.085,,0.085
158,2014-01-05,0.043416666666666666,,0.043416666666666666
158,2014-01-06,5.106708333333334,,5.106708333333334
158,2014-01-07,34.95670833333333,,34.95670833333333
158,2014-01-08,34.146625,,34.146625
158,2014-01-09,11.890833333333333,,11.890833333333333
158,2014-01-10,0.12675,,0.12675
158,2014-01-11,2.860041666666667,,2.860041666666667
158,2014-01-12,7.579958333333334,,7.579958333333334
158,2014-01-13,19.13,,19.13
158,2014-01-14,2.2033333333333336,,2.2033333333333336
158,2014-01-15,31.133333333333336,,31.133333333333336
158,2014-01-16,7.236625,,7.236625
158,2014-01-17,29.200041666666667,,29.200041666666667
158,2014-01-18,1.4100000000000001,,1.4100000000000001
158,2014-01-19,20.696708333333333,,20.696708333333333
158,2014-01-20,6.833333333333333,,6.833333333333333
158,2014-01-21,3.5532916666666665,,3.5532916666666665
158,2014-01-22,3.36,,3.36
158,2014-01-23,3.9466249999999996,,3.9466249999999996
158,2014-01-24,6.953375,,6.953375
158,2014-01-25,2.203375,,2.203375
158,2014-01-26,2.2832916666666665,,2.2832916666666665
158,2014-01-27,5.776666666666666,,5.776666666666666
158,2014-01-28,29.723333333333333,,29.723333333333333
158,2014-01-29,41.71,,41.71
158,2014-01-30,26.623375,,26.623375
158,2014-01-31,25.233333333333334,,25.233333333333334
158,2014-02-01,4.543291666666667,,4.543291666666667
158,2014-02-02,14.656625,,14.656625
158,2014-02-03,0.203375,,0.203375
158,2014-02-04,0.7700416666666667,,0.7700416666666667
158,2014-02-05,0.09000000000000001,,0.09000000000000001
158,2014-02-06,0.08333333333333333,,0.08333333333333333
158,2014-02-07,0.09325,,0.09325
158,2014-02-08,0.09000000000000001,,0.09000000000000001
158,2014-02-09,0.08666666666666667,,0.08666666666666667
158,2014-02-10,0.093375,,0.093375
158,2014-02-11,0.08333333333333333,,0.08333333333333333
158,2014-02-12,0.076625,,0.076625
158,2014-02-13,0.07666666666666667,,0.07666666666666667
158,2014-02-14,0.07008333333333333,,0.07008333333333333
158,2014-02-15,0.06666666666666667,,0.06666666666666667
158,2014-02-16,0.06995833333333333,,0.06995833333333333
158,2014-02-17,0.07333333333333333,,0.07333333333333333
158,2014-02-18,0.08666666666666667,,0.08666666666666667
158,2014-02-19,0.07666666666666667,,0.07666666666666667
158,2014-02-20,0.07666666666666667,,0.07666666666666667
158,2014-02-21,0.11333333333333334,,0.11333333333333334
158,2014-02-22,0.08658333333333333,,0.08658333333333333
158,2014-02-23,0.11004166666666666,,0.11004166666666666
158,2014-02-24,0.203375,,0.203375
158,2014-02-25,0.15329166666666666,,0.15329166666666666
158,2014-02-26,0.18337499999999998,,0.18337499999999998
158,2014-02-27,0.156625,,0.156625
158,2014-02-28,0.2899583333333333,,0.2899583333333333
158,2014-03-01,0.0,,0.0
158,2014-03-02,0.08670833333333333,,0.08670833333333333
158,2014-03-03,0.11,,0.11
158,2014-03-04,0.2899583333333333,,0.2899583333333333
158,2014-03-05,0.14004166666666668,,0.14004166666666668
158,2014-03-06,0.526625,,0.526625
158,2014-03-07,0.4166666666666667,,0.4166666666666667
158,2014-03-08,7.843333333333334,,7.843333333333334
158,2014-03-09,31.81341666666667,,31.81341666666667
158,2014-03-10,19.369958333333333,,19.369958333333333
158,2014-03-11,52.94,,52.94
158,2014-03-12,6.393375,,6.393375
158,2014-03-13,49.726708333333335,,49.726708333333335
158,2014-03-14,39.876625,,39.876625
158,2014-03-15,49.73,,49.73
158,2014-03-16,53.52,,53.52
158,2014-03-17,48.476708333333335,,48.476708333333335
158,2014-03-18,61.18995833333333,,61.18995833333333
158,2014-03-19,20.846708333333336,,20.846708333333336
158,2014-03-20,43.56670833333334,,43.56670833333334
158,2014-03-21,60.44325,,60.44325
158,2014-03-22,43.12679166666666,,43.12679166666666
158,2014-03-23,26.27325,,26.27325
158,2014-03-24,56.42658333333333,,56.42658333333333
158,2014-03-25,41.986666666666665,,41.986666666666665
158,2014-03-26,55.260083333333334,,55.260083333333334
158,2014-03-27,60.25666666666667,,60.25666666666667
158,2014-03-28,9.23325,,9.23325
158,2014-03-29,11.756666666666668,,11.756666666666668
158,2014-03-30,10.893416666666667,,10.893416666666667
158,2014-03-31,49.45333333333334,,49.45333333333334
158,2014-04-01,53.58658333333333,,53.58658333333333
158,2014-04-02,32.796708333333335,,32.796708333333335
158,2014-04-03,61.136541666666666,,61.136541666666666
158,2014-04-04,10.443375,,10.443375
158,2014-04-05,44.59,,44.59
158,2014-04-06,67.07666666666667,,67.07666666666667
158,2014-04-07,20.983375,,20.983375
158,2014-04-08,27.173333333333332,,27.173333333333332
158,2014-04-09,56.48666666666667,,56.48666666666667
158,2014-04-10,68.41991666666667,,68.41991666666667
158,2014-04-11,22.393416666666667,,22.393416666666667
158,2014-04-12,65.24333333333333,,65.24333333333333
158,2014-04-13,49.916666666666664,,49.916666666666664
158,2014-04-14,49.886541666666666,,49.886541666666666
158,2014-04-15,6.85025,,6.85025
158,2014-04-16,55.129875,,55.129875
158,2014-04-17,70.77995833333334,,70.77995833333334
158,2014-04-18,47.263374999999996,,47.263374999999996
158,2014-04-19,69.803375,,69.803375
158,2014-04-20,70.02341666666666,,70.02341666666666
158,2014-04-21,68.23666666666666,,68.23666666666666
158,2014-04-22,40.643208333333334,,40.643208333333334
158,2014-04-23,28.263375,,28.263375
158,2014-04-24,75.33658333333334,,75.33658333333334
158,2014-04-25,64.91341666666666,,64.91341666666666
158,2014-04-26,38.95345833333334,,38.95345833333334
158,2014-04-27,32.79004166666667,,32.79004166666667
158,2014-04-28,71.73304166666667,,71.73304166666667
158,2014-04-29,13.296875,,13.296875
158,2014-04-30,8.790000000000001,,8.790000000000001
158,2014-05-01,43.86004166666667,,43.86004166666667
158,2014-05-02,22.290000000000003,,22.290000000000003
158,2014-05-03,6.8535416666666675,,6.8535416666666675
158,2014-05-04,60.703125,,60.703125
158,2014-05-05,72.74675,,72.74675
158,2014-05-06,41.443374999999996,,41.443374999999996
158,2014-05-07,53.833333333333336,,53.833333333333336
158,2014-05-08,16.55666666666667,,16.55666666666667
158,2014-05-09,13.0065,,13.0065
158,2014-05-10,42.86329166666667,,42.86329166666667
158,2014-05-11,71.41991666666667,,71.41991666666667
158,2014-05-12,36.09020833333333,,36.09020833333333
158,2014-05-13,50.08691666666667,,50.08691666666667
158,2014-05-14,47.28658333333333,,47.28658333333333
158,2014-05-15,22.073333333333334,,22.073333333333334
158,2014-05-16,6.846666666666667,,6.846666666666667
158,2014-05-17,62.96333333333333,,62.96333333333333
158,2014-05-18,55.82,,55.82
158,2014-05-19,60.72,,60.72
158,2014-05-20,71.95333333333333,,71.95333333333333
158,2014-05-21,52.303333333333335,,52.303333333333335
158,2014-05-22,23.393333333333334,,23.393333333333334
158,2014-05-23,17.233333333333334,,17.233333333333334
158,2014-05-24,36.29333333333333,,36.29333333333333
158,2014-05-25,69.36666666666666,,69.36666666666666
158,2014-05-26,62.57666666666666,,62.57666666666666
158,2014-05-27,48.27666666666667,,48.27666666666667
158,2014-05-28,15.57,,15.57
158,2014-05-29,73.10666666666667,,73.10666666666667
158,2014-05-30,62.443333333333335,,62.443333333333335
158,2014-05-31,59.91,,59.91
158,2014-06-01,67.52333333333333,,67.52333333333333
158,2014-06-02,71.52333333333333,,71.52333333333333
158,2014-06-03,54.24,,54.24
158,2014-06-04,61.843333333333334,,61.843333333333334
158,2014-06-05,34.946666666666665,,34.946666666666665
158,2014-06-06,54.166666666666664,,54.166666666666664
158,2014-06-07,48.843333333333334,,48.843333333333334
158,2014-06-08,64.08666666666666,,64.08666666666666
158,2014-06-09,8.652916666666666,,8.652916666666666
158,2014-06-10,26.787499999999998,,26.787499999999998
158,2014-06-11,15.940041666666666,,15.940041666666666
158,2014-06-12,12.706249999999999,,12.706249999999999
158,2014-06-13,24.11,,24.11
158,2014-06-14,33.556666666666665,,33.556666666666665
158,2014-06-15,72.21666666666667,,72.21666666666667
158,2014-06-16,69.49041666666666,,69.49041666666666
158,2014-06-17,62.492916666666666,,62.492916666666666
158,2014-06-18,45.04666666666666,,45.04666666666666
158,2014-06-19,49.07333333333333,,49.07333333333333
158,2014-06-20,68.53666666666668,,68.53666666666668
158,2014-06-21,61.63999999999999,,61.63999999999999
158,2014-06-22,66.62041666666667,,66.62041666666667
158,2014-06-23,67.34625,,67.34625
158,2014-06-24,52.22958333333333,,52.22958333333333
158,2014-06-25,45.83041666666667,,45.83041666666667
158,2014-06-26,46.97625,,46.97625
158,2014-06-27,68.46375,,68.46375
158,2014-06-28,67.69,,67.69
158,2014-06-29,67.98291666666667,,67.98291666666667
158,2014-06-30,53.21041666666667,,53.21041666666667
158,2014-07-01,60.963750000000005,,60.963750000000005
158,2014-07-02,49.102916666666665,,49.102916666666665
158,2014-07-03,52.57666666666666,,52.57666666666666
158,2014-07-04,16.16,,16.16
158,2014-07-05,72.88666666666667,,72.88666666666667
158,2014-07-06,72.28,,72.28
158,2014-07-07,59.86666666666667,,59.86666666666667
158,2014-07-08,55.833333333333336,,55.833333333333336
158,2014-07-09,61.70291666666666,,61.70291666666666
158,2014-07-10,65.55375,,65.55375
158,2014-07-11,68.24,,68.24
158,2014-07-12,61.67666666666667,,61.67666666666667
158,2014-07-13,44.97333333333333,,44.97333333333333
158,2014-07-14,26.373333333333335,,26.373333333333335
158,2014-07-15,33.41041666666667,,33.41041666666667
158,2014-07-16,34.59458333333333,,34.59458333333333
158,2014-07-17,62.81,,62.81
158,2014-07-18,67.42666666666666,,67.42666666666666
158,2014-07-19,44.993291666666664,,44.993291666666664
158,2014-07-20,62.14333333333334,,62.14333333333334
158,2014-07-21,65.05958333333334,,65.05958333333334
158,2014-07-22,65.00750000000001,,65.00750000000001
158,2014-07-23,61.696666666666665,,61.696666666666665
158,2014-07-24,58.86625,,58.86625
158,2014-07-25,65.04708333333333,,65.04708333333333
158,2014-07-26,43.219166666666666,,43.219166666666666
158,2014-07-27,48.10041666666667,,48.10041666666667
158,2014-07-28,48.083333333333336,,48.083333333333336
158,2014-07-29,53.57333333333333,,53.57333333333333
158,2014-07-30,63.46,,63.46
158,2014-07-31,46.787083333333335,,46.787083333333335
158,2014-08-01,44.82916666666667,,44.82916666666667
158,2014-08-02,37.73041666666666,,37.73041666666666
158,2014-08-03,45.099583333333335,,45.099583333333335
158,2014-08-04,32.13375,,32.13375
158,2014-08-05,62.56,,62.56
158,2014-08-06,44.07333333333333,,44.07333333333333
158,2014-08-07,61.623333333333335,,61.623333333333335
158,2014-08-08,64.66666666666667,,64.66666666666667
158,2014-08-09,65.06375,,65.06375
158,2014-08-10,63.04291666666666,,63.04291666666666
158,2014-08-11,59.15375,,59.15375
158,2014-08-12,21.739583333333332,,21.739583333333332
158,2014-08-13,26.326666666666668,,26.326666666666668
158,2014-08-14,56.02,,56.02
158,2014-08-15,35.29,,35.29
158,2014-08-16,55.876666666666665,,55.876666666666665
158,2014-08-17,44.653333333333336,,44.653333333333336
158,2014-08-18,52.82,,52.82
158,2014-08-19,64.66375000000001,,64.66375000000001
158,2014-08-20,57.22,,57.22
158,2014-08-21,27.89625,,27.89625
158,2014-08-22,14.679583333333333,,14.679583333333333
158,2014-08-23,29.35375,,29.35375
158,2014-08-24,42.473333333333336,,42.473333333333336
158,2014-08-25,57.786249999999995,,57.786249999999995
158,2014-08-26,59.96041666666667,,59.96041666666667
158,2014-08-27,53.456250000000004,,53.456250000000004
158,2014-08-28,56.70708333333334,,56.70708333333334
158,2014-08-29,62.50333333333333,,62.50333333333333
158,2014-08-30,0.04708333333333333,,0.04708333333333333
158,2014-08-31,21.56625,,21.56625
158,2014-09-01,47.94,,47.94
158,2014-09-02,54.86333333333334,,54.86333333333334
158,2014-09-03,52.24041666666667,,52.24041666666667
158,2014-09-04,55.99666666666667,,55.99666666666667
158,2014-09-05,53.10916666666666,,53.10916666666666
158,2014-09-06,44.16041666666666,,44.16041666666666
158,2014-09-07,59.36625,,59.36625
158,2014-09-08,48.583333333333336,,48.583333333333336
158,2014-09-09,29.26375,,29.26375
158,2014-09-10,55.10375,,55.10375
158,2014-09-11,21.062916666666666,,21.062916666666666
158,2014-09-12,60.91041666666666,,60.91041666666666
158,2014-09-13,15.86,,15.86
158,2014-09-14,59.09625,,59.09625
158,2014-09-15,54.06708333333333,,54.06708333333333
158,2014-09-16,29.495833333333334,,29.495833333333334
158,2014-09-17,53.82708333333333,,53.82708333333333
158,2014-09-18,47.71,,47.71
158,2014-09-19,56.572916666666664,,56.572916666666664
158,2014-09-20,46.13375,,46.13375
158,2014-09-21,22.80666666666667,,22.80666666666667
158,2014-09-22,51.47958333333333,,51.47958333333333
158,2014-09-23,55.790416666666665,,55.790416666666665
158,2014-09-24,46.416666666666664,,46.416666666666664
158,2014-09-25,15.67,,15.67
158,2014-09-26,54.43291666666667,,54.43291666666667
158,2014-09-27,52.18083333333333,,52.18083333333333
158,2014-09-28,46.370000000000005,,46.370000000000005
158,2014-09-29,23.423333333333332,,23.423333333333332
158,2014-09-30,38.27333333333333,,38.27333333333333
158,2014-10-01,9.989583333333334,,9.989583333333334
158,2014-10-02,22.546666666666667,,22.546666666666667
158,2014-10-03,51.18,,51.18
158,2014-10-04,12.22375,,12.22375
158,2014-10-05,53.91,,53.91
158,2014-10-06,51.34916666666667,,51.34916666666667
158,2014-10-07,36.47666666666667,,36.47666666666667
158,2014-10-08,43.4675,,43.4675
158,2014-10-09,41.99583333333333,,41.99583333333333
158,2014-10-10,35.833333333333336,,35.833333333333336
158,2014-10-11,11.256666666666668,,11.256666666666668
158,2014-10-12,50.28375,,50.28375
158,2014-10-13,9.243333333333334,,9.243333333333334
158,2014-10-14,31.15625,,31.15625
158,2014-10-15,17.354166666666668,,17.354166666666668
158,2014-10-16,18.765833333333333,,18.765833333333333
158,2014-10-17,42.879999999999995,,42.879999999999995
158,2014-10-18,15.350416666666668,,15.350416666666668
158,2014-10-19,33.209583333333335,,33.209583333333335
158,2014-10-20,34.433749999999996,,34.433749999999996
158,2014-10-21,9.88,,9.88
158,2014-10-22,2.987083333333333,,2.987083333333333
158,2014-10-23,3.0795833333333333,,3.0795833333333333
158,2014-10-24,11.890416666666667,,11.890416666666667
158,2014-10-25,41.365833333333335,,41.365833333333335
158,2014-10-26,7.110833333333333,,7.110833333333333
158,2014-10-27,42.46333333333333,,42.46333333333333
158,2014-10-28,30.400000000000002,,30.400000000000002
158,2014-10-29,11.369583333333333,,11.369583333333333
158,2014-10-30,32.51708333333333,,32.51708333333333
158,2014-10-31,22.425833333333333,,22.425833333333333
158,2014-11-01,7.164166666666667,,7.164166666666667
158,2014-11-02,24.956666666666667,,24.956666666666667
158,2014-11-03,40.3725,,40.3725
158,2014-11-04,33.34375,,33.34375
158,2014-11-05,11.170833333333334,,11.170833333333334
158,2014-11-06,2.842083333333333,,2.842083333333333
158,2014-11-07,16.8975,,16.8975
158,2014-11-08,37.99583333333333,,37.99583333333333
158,2014-11-09,27.390833333333333,,27.390833333333333
158,2014-11-10,33.352916666666665,,33.352916666666665
158,2014-11-11,27.963333333333335,,27.963333333333335
158,2014-11-12,12.299583333333333,,12.299583333333333
158,2014-11-13,22.700416666666666,,22.700416666666666
158,2014-11-14,22.953333333333333,,22.953333333333333
158,2014-11-15,37.66375,,37.66375
158,2014-11-16,11.419583333333334,,11.419583333333334
158,2014-11-17,2.6104166666666666,,2.6104166666666666
158,2014-11-18,38.41916666666666,,38.41916666666666
158,2014-11-19,35.6175,,35.6175
158,2014-11-20,32.49583333333333,,32.49583333333333
158,2014-11-21,28.950833333333335,,28.950833333333335
158,2014-11-22,29.632499999999997,,29.632499999999997
158,2014-11-23,21.66416666666667,,21.66416666666667
158,2014-11-24,9.9325,,9.9325
158,2014-11-25,7.6000000000000005,,7.6000000000000005
158,2014-11-26,0.04708333333333333,,0.04708333333333333
158,2014-11-27,0.03,,0.03
158,2014-11-28,0.04666666666666667,,0.04666666666666667
158,2014-11-29,0.043333333333333335,,0.043333333333333335
158,2014-11-30,0.042916666666666665,,0.042916666666666665
158,2014-12-01,0.6533333333333333,,0.6533333333333333
158,2014-12-02,7.130416666666666,,7.130416666666666
158,2014-12-03,2.1133333333333333,,2.1133333333333333
158,2014-12-04,19.649583333333332,,19.649583333333332
158,2014-12-05,0.004166666666666667,,0.004166666666666667
158,2014-12-06,1.2395833333333333,,1.2395833333333333
158,2014-12-07,22.610416666666666,,22.610416666666666
158,2014-12-08,7.066666666666666,,7.066666666666666
158,2014-12-09,0.24583333333333335,,0.24583333333333335
158,2014-12-10,3.2475,,3.2475
158,2014-12-11,6.886666666666667,,6.886666666666667
158,2014-12-12,12.166666666666666,,12.166666666666666
158,2014-12-13,20.12625,,20.12625
158,2014-12-14,7.722916666666666,,7.722916666666666
158,2014-12-15,20.734166666666667,,20.734166666666667
158,2014-12-16,5.3999999999999995,,5.3999999999999995
158,2014-12-17,8.952916666666667,,8.952916666666667
158,2014-12-18,8.649583333333334,,8.649583333333334
158,2014-12-19,9.854166666666666,,9.854166666666666
158,2014-12-20,4.78,,4.78
158,2014-12-21,2.6029166666666668,,2.6029166666666668
158,2014-12-22,4.7629166666666665,,4.7629166666666665
158,2014-12-23,2.3891666666666667,,2.3891666666666667
158,2014-12-24,2.0158333333333336,,2.0158333333333336
158,2014-12-25,9.8175,,9.8175
158,2014-12-26,20.8725,,20.8725
158,2014-12-27,18.849999999999998,,18.849999999999998
158,2014-12-28,3.8166666666666664,,3.8166666666666664
158,2014-12-29,14.253749999999998,,14.253749999999998
158,2014-12-30,12.969999999999999,,12.969999999999999
158,2014-12-31,15.386666666666665,,15.386666666666665
158,2015-01-01,21.457083333333333,,21.457083333333333
158,2015-01-02,8.615833333333333,,8.615833333333333
158,2015-01-03,4.410416666666666,,4.410416666666666
158,2015-01-04,1.9766666666666666,,1.9766666666666666
158,2015-01-05,21.28625,,21.28625
158,2015-01-06,6.854166666666667,,6.854166666666667
158,2015-01-07,11.56,,11.56
158,2015-01-08,23.66,,23.66
158,2015-01-09,0.5508333333333334,,0.5508333333333334
158,2015-01-10,8.099166666666667,,8.099166666666667
158,2015-01-11,5.400833333333334,,5.400833333333334
158,2015-01-12,1.5766666666666669,,1.5766666666666669
158,2015-01-13,25.803749999999997,,25.803749999999997
158,2015-01-14,15.6025,,15.6025
158,2015-01-15,24.403750000000002,,24.403750000000002
158,2015-01-16,20.150000000000002,,20.150000000000002
158,2015-01-17,24.912499999999998,,24.912499999999998
158,2015-01-18,2.3841666666666668,,2.3841666666666668
158,2015-01-19,10.606666666666667,,10.606666666666667
158,2015-01-20,12.940416666666666,,12.940416666666666
158,2015-01-21,17.0,,17.0
158,2015-01-22,14.876249999999999,,14.876249999999999
158,2015-01-23,26.715833333333332,,26.715833333333332
158,2015-01-24,0.04041666666666666,,0.04041666666666666
158,2015-01-25,0.34375,,0.34375
158,2015-01-26,0.06,,0.06
158,2015-01-27,0.04708333333333333,,0.04708333333333333
158,2015-01-28,0.18208333333333335,,0.18208333333333335
158,2015-01-29,0.16,,0.16
158,2015-01-30,0.03375,,0.03375
158,2015-01-31,0.07041666666666667,,0.07041666666666667
158,2015-02-01,0.06,,0.06
158,2015-02-02,0.03916666666666666,,0.03916666666666666
158,2015-02-03,0.04666666666666667,,0.04666666666666667
158,2015-02-04,0.04041666666666666,,0.04041666666666666
158,2015-02-05,0.042916666666666665,,0.042916666666666665
158,2015-02-06,0.04416666666666667,,0.04416666666666667
158,2015-02-07,0.042916666666666665,,0.042916666666666665
158,2015-02-08,0.04041666666666666,,0.04041666666666666
158,2015-02-09,0.04583333333333334,,0.04583333333333334
158,2015-02-10,0.04416666666666667,,0.04416666666666667
158,2015-02-11,0.03916666666666666,,0.03916666666666666
158,2015-02-12,0.04041666666666666,,0.04041666666666666
158,2015-02-13,0.04666666666666667,,0.04666666666666667
158,2015-02-14,0.042916666666666665,,0.042916666666666665
158,2015-02-15,0.04041666666666666,,0.04041666666666666
158,2015-02-16,0.04708333333333333,,0.04708333333333333
158,2015-02-17,0.042916666666666665,,0.042916666666666665
158,2015-02-18,0.04041666666666666,,0.04041666666666666
158,2015-02-19,0.0062499999999999995,,0.0062499999999999995
158,2015-02-20,0.04666666666666667,,0.04666666666666667
158,2015-02-21,0.03,,0.03
158,2015-02-22,0.028333333333333335,,0.028333333333333335
158,2015-02-23,0.04958333333333333,,0.04958333333333333
158,2015-02-24,0.05333333333333334,,0.05333333333333334
158,2015-02-25,0.050833333333333335,,0.050833333333333335
158,2015-02-26,0.049166666666666664,,0.049166666666666664
158,2015-02-27,0.05625,,0.05625
158,2015-02-28,0.07666666666666667,,0.07666666666666667
158,2015-03-01,0.19666666666666666,,0.19666666666666666
158,2015-03-02,0.36083333333333334,,0.36083333333333334
158,2015-03-03,0.3566666666666667,,0.3566666666666667
158,2015-03-04,0.3529166666666667,,0.3529166666666667
158,2015-03-05,0.3566666666666667,,0.3566666666666667
158,2015-03-06,0.3566666666666667,,0.3566666666666667
158,2015-03-07,0.3566666666666667,,0.3566666666666667
158,2015-03-08,0.31,,0.31
158,2015-03-09,0.29333333333333333,,0.29333333333333333
158,2015-03-10,0.3566666666666667,,0.3566666666666667
158,2015-03-11,0.3566666666666667,,0.3566666666666667
158,2015-03-12,0.3566666666666667,,0.3566666666666667
158,2015-03-13,0.2333333333333333,,0.2333333333333333
158,2015-03-14,0.0,,0.0
158,2015-03-15,0.0,,0.0
158,2015-03-16,0.0,,0.0
158,2015-03-17,2.856666666666667,,2.856666666666667
158,2015-03-18,28.169583333333335,,28.169583333333335
158,2015-03-19,46.88666666666666,,46.88666666666666
158,2015-03-20,8.640416666666667,,8.640416666666667
158,2015-03-21,10.009166666666667,,10.009166666666667
158,2015-03-22,45.6575,,45.6575
158,2015-03-23,48.459583333333335,,48.459583333333335
158,2015-03-24,43.96625,,43.96625
158,2015-03-25,28.77333333333333,,28.77333333333333
158,2015-03-26,10.15,,10.15
158,2015-03-27,13.587083333333332,,13.587083333333332
158,2015-03-28,13.076666666666666,,13.076666666666666
158,2015-03-29,49.032916666666665,,49.032916666666665
158,2015-03-30,19.99083333333333,,19.99083333333333
158,2015-03-31,23.175833333333333,,23.175833333333333
158,2015-04-01,47.10666666666666,,47.10666666666666
158,2015-04-02,41.75,,41.75
158,2015-04-03,7.570416666666667,,7.570416666666667
158,2015-04-04,39.00625,,39.00625
158,2015-04-05,23.68375,,23.68375
158,2015-04-06,44.177083333333336,,44.177083333333336
158,2015-04-07,7.645833333333333,,7.645833333333333
158,2015-04-08,6.670416666666667,,6.670416666666667
158,2015-04-09,8.489583333333334,,8.489583333333334
158,2015-04-10,11.640416666666667,,11.640416666666667
158,2015-04-11,41.87625,,41.87625
158,2015-04-12,48.520833333333336,,48.520833333333336
158,2015-04-13,38.166666666666664,,38.166666666666664